Location: Newark
(51.5114°N, 0.0848°W)
Time: 09:18:08
(UTC+00:00)

N. Korean satellite - Pass Details

Date: 27 October 2019
Orbit: 456 x 506 km, 97.2° (Epoch: 11 November)

Event Time Altitude Azimuth Distance (km) Brightness Sun altitude
Rises 04:55:28 0° 28° (NNE) 2,582 10.7 -17.5°
Reaches altitude 10° 04:58:13 10° 51° (NE) 1,703 10.1 -17.0°
Maximum altitude 05:00:31 16° 90° (E) 1,383 10.0 -16.7°
Drops below altitude 10° 05:02:49 10° 129° (SE) 1,708 10.1 -16.3°
Sets 05:05:34 0° 152° (SSE) 2,592 10.7 -15.9°
